Regional Weather Roundup
Issued by NWS

Home | Current Version | Previous Version | Graphics & Text | Print | Product List | Glossary Off
Versions: 1 2 3 4 5 6 7 8 9 10 11 12 13 14 15 16 17 18 19 20 21 22 23 24 25 26 27 28 29 30 31 32 33 34 35 36 37 38 39 40 41 42 43 44 45 46 47 48 49 50

000
ASUS43 KMPX 282101
RWRMN
WEATHER ROUNDUP FOR MINNESOTA
NATIONAL WEATHER SERVICE TWIN CITIES/CHANHASSEN MN
400 PM CDT SUN MAY 28 2017


NOTE: "FAIR" INDICATES FEW OR NO CLOUDS BELOW 12,000 FEET WITH NO
SIGNIFICANT WEATHER AND/OR OBSTRUCTIONS TO VISIBILITY. N/A MEANS
CURRENT SKY AND/OR WEATHER CONDITIONS ARE NOT AVAILABLE.

MNZ060>063-068>070-282200-
   Twin Cities Metro

CITY           SKY/WX    TMP DP  RH WIND       PRES   REMARKS
TWIN CITIES    PTSUNNY   73  43  33 NW17G30   29.72S
ST PAUL        PTSUNNY   71  44  37 W18G29    29.71F
CRYSTAL        MOSUNNY   72  41  32 W22G31    29.70F
LAKEVILLE      MOSUNNY   70  45  40 W14G23    29.73F
EDEN PRAIRIE   PTSUNNY   72  43  35 W10G25    29.72S
SOUTH ST PAUL  PTSUNNY   72  43  35 W10G23    29.71F
LAKE ELMO      PTSUNNY   70  46  43 W17G25    29.72S
$$
MNZ001>005-007-008-013>017-022>024-027-028-282200-
   Northwest Minnesota

CITY           SKY/WX    TMP DP  RH WIND       PRES   REMARKS
BEMIDJI        CLOUDY    58  46  62 W17       29.69R
HALLOCK        PTSUNNY   61  50  67 N15G22    29.69S
ROSEAU         MOSUNNY   61  48  63 W13G22    29.66S
WARROAD        SUNNY     63  48  59 W13G20    29.65S
CROOKSTON      CLOUDY    55  54  94 NW6       29.73S
FOSSTON        LGT RAIN  54  48  82 W13G22    29.73S
DETROIT LAKES  MOSUNNY   63  45  51 N21G39    29.76R
MOORHEAD       SUNNY     72  37  28 W22G29    29.71F
PARK RAPIDS    PTSUNNY   64  44  48 NW14      29.70F
MAHNOMEN       CLOUDY    53  47  81 NW9       29.74F
$$
MNZ006-009>011-018-025>026-282200-
   North Central Minnesota

CITY           SKY/WX    TMP DP  RH WIND       PRES   REMARKS
BAUDETTE       PTSUNNY   57  50  77 NW10      29.64F
FLAG ISLAND    DRIZZLE   55  50  82 NW8       29.64S
INTL FALLS     CLOUDY    60  55  83 CALM      29.61F
WASKISH        CLOUDY    61  48  63 W12       29.66F
BIG FORK       HVY RAIN  54  50  87 CALM      29.68R
LONGVILLE      CLOUDY    61  52  72 W8        29.69F
GRAND RAPIDS   LGT RAIN  54  51  90 NW6       29.70F
CRANE LAKE     RAIN      54  50  87 NW3       29.65R
ORR            CLOUDY    64  45  48 NW14      29.60S
COOK           CLOUDY    61  48  63 W9        29.63S
WALKER         CLOUDY    60  47  62 NW15G21   29.69S
$$
MNZ012-019>021-037-282200-
   Northeast Minnesota

CITY           SKY/WX    TMP DP  RH WIND       PRES   REMARKS
DULUTH         PTSUNNY   60  48  64 W18       29.64S
ELY            LGT RAIN  52  48  87 W5        29.63S
HIBBING        LGT RAIN  53  52  96 W8        29.65R
EVELETH        LGT RAIN  58  44  59 W14       29.66R
DULUTH HARBOR  CLOUDY    64  52  63 W17G23    29.64R
TWO HARBORS    HVY RAIN  57  52  82 E3        29.61S
SILVER BAY     LGT RAIN  55  54  94 CALM      29.62F
GRAND MARAIS     N/A     56  53  90 CALM      29.63R
G MARAIS ARPRT RAIN      52  46  82 S3        29.65S
$$
MNZ029>031-032-039>041-046>048-054>057-064-282200-
   West Central Minnesota

CITY           SKY/WX    TMP DP  RH WIND       PRES   REMARKS
FERGUS FALLS   PTSUNNY   66  45  45 N10G35    29.72F
WHEATON        MOSUNNY   72  36  26 NW21G28   29.76F
MORRIS         MOSUNNY   72  43  35 NW25      29.75F
ALEXANDRIA     MOSUNNY   66  49  54 NW20G25   29.76F
ELBOW LAKE     FAIR      66  45  45 NW21      29.75F
WADENA         MOSUNNY   64  46  52 W17G24    29.72F THUNDER
GLENWOOD       SUNNY     68  45  42 NW28      29.75F
APPLETON       PTSUNNY   73  34  23 NW22G33   29.76F
BENSON         MOSUNNY   70  37  30 N21G31    29.77F
ORTONVILLE     MOSUNNY   72  39  30 NW22      29.78F
MADISON        MOSUNNY   75  39  27 NW18G28   29.78F
WILLMAR        FAIR      66  48  52 NW10      29.77F
$$
MNZ033>034-036-042>043-049>051-058-059-282200-
   Central Minnesota

CITY           SKY/WX    TMP DP  RH WIND       PRES   REMARKS
ST CLOUD       CLOUDY    65  46  50 W13       29.73R
SAUK CENTRE    MOCLDY    65  47  50 NW15G24   29.75F
PAYNESVILLE    CLOUDY    65  48  55 W13       29.76F
AITKIN         CLOUDY    57  48  72 NW7       29.70F
PINE RIVER     MOSUNNY   63  50  63 NW12      29.73F
BRAINERD       MOSUNNY   61  48  62 N13G20    29.72F
STAPLES        MOSUNNY   64  45  48 NW14G20   29.71F
LONG PRAIRIE   PTSUNNY   61  45  55 W15       29.75S
LITTLE FALLS   CLOUDY    61  48  63 W8        29.73F THUNDER
LITCHFIELD     CLOUDY    64  52  63 NW12      29.78R
BUFFALO        LGT RAIN  61  48  62 W22G30    29.77R
MAPLE LAKE     RAIN      58  50  75 NW14G26   29.77R
HUTCHINSON     PTSUNNY   74  45  35 NW22G35   29.76S
$$
MNZ037-044-045-052-053-282200-
   East Central Minnesota

CITY           SKY/WX    TMP DP  RH WIND       PRES   REMARKS
PRINCETON      PTSUNNY   68  46  45 W23       29.72R
MORA           TSTM      57  50  77 W7        29.74R
CAMBRIDGE      LGT RAIN  70  50  49 W13       29.68F
RUSH CITY      LGT RAIN  57  51  79 N7        29.71S
MOOSE LAKE     CLOUDY    59  52  77 W10G18    29.69S
HINCKLEY       CLOUDY    61  50  67 NW9       29.71S
CLOQUET        CLOUDY    55  46  71 W10       29.68R
MCGREGOR       PTSUNNY   55  50  82 W8        29.71F
$$
MNZ071>073-080-081-089-090-097-098-282200-
   Southwest Minnesota

CITY           SKY/WX    TMP DP  RH WIND       PRES   REMARKS
MONTEVIDEO     MOSUNNY   73  41  31 N18G25    29.78F
CANBY          MOSUNNY   71  40  33 W22G28    29.82S
MARSHALL       MOSUNNY   70  41  34 NW22      29.80S
REDWOOD FALLS  PTSUNNY   70  42  36 W20G31    29.78S
OLIVIA         MOSUNNY   70  41  35 W25G32    29.77S
PIPESTONE      MOSUNNY   73  27  17 NW22G30   29.86S
WINDOM         MOSUNNY   73  36  25 W29G39    29.81F
WORTHINGTON    PTSUNNY   70  41  34 NW20G29   29.84F
JACKSON        MOSUNNY   72  37  28 NW20G29   29.83S
TRACY          PTSUNNY   74  43  32 NW21G30   29.82S
SLAYTON        MOSUNNY   70  40  33 NW20G30   29.84F
$$
MNZ065>067-074>077-082>085-091>093-282200-
   South Central Minnesota

CITY           SKY/WX    TMP DP  RH WIND       PRES   REMARKS
NEW ULM        MOSUNNY   72  43  35 NW21G28   29.78S
ST JAMES       MOSUNNY   73  37  27 W25G32    29.79F
FAIRMONT       CLOUDY    74  42  31 W21G36    29.80F
GLENCOE        PTSUNNY   73  47  38 W20G28    29.74F
FARIBAULT      MOSUNNY   72  43  35 W15G23    29.76S
OWATONNA       MOSUNNY   73  39  29 W22G28    29.77S
WASECA         MOSUNNY   72  41  33 W22G32    29.78F
ALBERT LEA     MOSUNNY   73  43  33 NW16G24   29.78S
$$
MNZ078>079-086>088-094>096-282200-
   Southeast Minnesota

CITY           SKY/WX    TMP DP  RH WIND       PRES   REMARKS
ROCHESTER      PTSUNNY   71  44  37 W23G31    29.77R
RED WING       PTSUNNY   73  39  29 W16       29.71F
STANTON        CLOUDY    72  41  33 W21G30    29.73S
DODGE CENTER   PTSUNNY   70  39  32 NW21G29   29.77S
WINONA         PTSUNNY   73  45  35 NW10G23   29.73S
AUSTIN         MOSUNNY   72  41  33 W21G26    29.77F
PRESTON        PTSUNNY   70  43  38 NW16G31   29.77S
$$
ABBREVIATIONS USED IN REMARKS
   TC - TEMPERATURES IN CELSIUS
  WCI - WIND CHILL INDEX
   HX - HEAT INDEX
  VSB - VISIBILITY
$$




USA.gov is the U.S. government's official web portal to all federal, state and local government web resources and services.